Regional Weather Roundup
Issued by NWS

Home | Current Version | Previous Version | Graphics & Text | Print | Product List | Glossary On
Versions: 1 2 3 4 5 6 7 8 9 10 11 12 13 14 15 16 17 18 19 20 21 22 23 24 25 26 27 28 29 30 31 32 33 34 35 36 37 38 39 40 41 42 43 44 45 46 47 48 49 50
000
ASUS43 KIND 280700
RWRIN

WEATHER ROUNDUP FOR INDIANA
NATIONAL WEATHER SERVICE INDIANAPOLIS IN
300 AM EDT SUN MAY 28 2017

NOTE: "FAIR" INDICATES FEW OR NO CLOUDS BELOW 12,000 FEET WITH NO
SIGNIFICANT WEATHER AND/OR OBSTRUCTIONS TO VISIBILITY.

* - STATION DOES NOT REPORT WEATHER SUCH AS PRECIPITATION OR FOG.

+ - STATION NOT QUALITY CONTROLLED BY THE NATIONAL WEATHER SERVICE.
    USE DATA WITH CAUTION...ESPECIALLY DEWPOINT AND RELATIVE
    HUMIDITY OBSERVATIONS.

INZ001>003-010>013-019-020-280800-
NORTHWEST INDIANA

CITY           SKY/WX    TMP DP  RH WIND       PRES   REMARKS
MICHIGAN CITY+ CLOUDY    55  55 100 CALM      29.82S
MONTICELLO +   MOCLDY    60  58  96 CALM      29.79F FOG
RENSSELAER +   CLOUDY    63  59  88 NE6       29.80F

$$

LMZ046-743>745-280800-
SOUTHERN LAKE MICHIGAN

STATION/POSITION TIME  TEMP    WIND        PRES    WAVE
                       AIR SEA DIR/SP/G            HT
                 (UTC) (F)     (DEG/KT/KT) (MB)    (FT)
BURNS HARBOR     0640   59        CALM     1010.2F
MICHIGAN CITY    0630   61     120/  2/  2   N/A
5NW MICH CITY    0650   57 56   70/  2/  4   N/A     0

$$

INZ004-005-014>016-021>024-280800-
NORTH CENTRAL INDIANA

CITY           SKY/WX    TMP DP  RH WIND       PRES   REMARKS
GOSHEN         CLOUDY    61  55  81 CALM      29.82R
PERU/GRISSOM   CLOUDY    63  63 100 E5        29.79F
SOUTH BEND     CLOUDY    60  59  96 CALM      29.82F

$$

INZ006>009-017-018-025>027-280800-
NORTHEAST INDIANA

CITY           SKY/WX    TMP DP  RH WIND       PRES   REMARKS
ANGOLA *+      CLEAR     59  48  67 CALM      29.83F
FORT WAYNE     MOCLDY    60  56  86 NE5       29.82F
KENDALLVILLE + CLOUDY    60  55  82 CALM      29.84S

$$

INZ028-029-035-036-043>045-051>053-280800-
WEST CENTRAL INDIANA

CITY           SKY/WX    TMP DP  RH WIND       PRES   REMARKS
CRAWFORDSVL +  CLOUDY   -23 -23 100 CALM      29.78F
GREENCASTLE +  MOCLDY    63  61  94 CALM      29.79S
LAFAYETTE      CLOUDY    58  58 100 CALM      29.77F FOG
TERRE HAUTE    CLOUDY    67  62  84 E5        29.76F

$$

INZ030>032-037>040-046>048-054>057-064-065-280800-
CENTRAL INDIANA

CITY           SKY/WX    TMP DP  RH WIND       PRES   REMARKS
GREENWOOD *+   CLOUDY    65  63  91 CALM      29.79S
INDIANAPOLIS   CLOUDY    67  62  84 CALM      29.78S
-EAGLE CREEK   CLOUDY    64  61  90 CALM      29.78S
KOKOMO +       CLOUDY    62  61  96 NE6       29.80F
SHELBYVILLE    MOCLDY    67  62  84 S6        29.78F

$$

INZ033-034-041-042-049-050-058-059-280800-
EAST CENTRAL INDIANA

CITY           SKY/WX    TMP DP  RH WIND       PRES   REMARKS
MUNCIE         PTCLDY    64  62  93 E5        29.79F
RICHMOND +     PTCLDY    63  63 100 CALM      29.81R

$$

INZ060-061-067>069-081>083-085>088-280800-
SOUTHWEST INDIANA

CITY           SKY/WX    TMP DP  RH WIND       PRES   REMARKS
EVANSVILLE     CLOUDY    67  60  78 NW7       29.81F
HUNTINGBURG *+ CLOUDY    66  61  84 S9        29.77F

$$

INZ062-063-066-070>080-084-089>092-280800-
SOUTH CENTRAL AND SOUTHEAST INDIANA

CITY           SKY/WX    TMP DP  RH WIND       PRES   REMARKS
BLOOMINGTON    CLOUDY    66  62  87 SE5       29.78F
MADISON *+     CLOUDY    64  61  88 S5        29.83R
SEYMOUR +      CLOUDY    66  63  88 CALM      29.80F

$$





USA.gov is the U.S. government's official web portal to all federal, state and local government web resources and services.